QPF
0.00 0.00 0.00 0.00 0.00 0.00 0.00 0.00 0.01 0.01 0.01 0.01 0.01 0.01 0.01 0.01 0.01 0.01 0.02 0.02 0.02 0.02 0.03 0.02 0.02 0.01 0.01 0.01 0.01 0.01 0.01 0.00 0.00 0.00 0.00 0.00 0.00 0.00 0.01 0.01 0.01 0.01 0.01
0.00 0.00 0.00 0.00 0.00 0.00 0.00 0.00 0.00 0.01 0.01 0.00 0.00 0.00 0.01 0.01 0.02 0.02 0.02 0.01 0.01 0.01 0.02 0.02 0.02 0.01 0.01 0.01 0.02 0.02 0.02 0.01 0.01 0.01 0.01 0.01 0.01 0.01 0.01 0.02 0.02 0.01 0.02
0.00 0.00 0.00 0.00 0.00 0.00 0.00 0.00 0.00 0.00 0.01 0.01 0.01 0.01 0.01 0.02 0.02 0.02 0.02 0.01 0.01 0.01 0.01 0.01 0.01 0.01 0.01 0.01 0.02 0.02 0.02 0.02 0.02 0.02 0.02 0.02 0.03 0.01 0.01 0.01 0.01 0.01 0.01
0.00 0.00 0.00 0.00 0.00 0.00 0.00 0.00 0.00 0.00 0.01 0.01 0.01 0.01 0.01 0.01 0.00 0.00 0.01 0.01 0.01 0.01 0.01 0.01 0.01 0.02 0.02 0.02 0.01 0.02 0.02 0.02 0.02 0.01 0.01 0.02 0.03 0.02 0.02 0.02 0.01 0.01 0.01
0.00 0.00 0.00 0.00 0.00 0.00 0.00 0.00 0.00 0.00 0.00 0.01 0.01 0.01 0.01 0.00 0.00 0.00 0.01 0.01 0.01 0.01 0.01 0.01 0.02 0.02 0.01 0.01 0.01 0.01 0.01 0.02 0.02 0.02 0.02 0.02 0.02 0.02 0.03 0.02 0.02 0.02 0.02
0.01 0.01 0.00 0.00 0.00 0.00 0.00 0.00 0.00 0.00 0.00 0.00 0.01 0.01 0.01 0.01 0.00 0.00 0.00 0.01 0.01 0.01 0.01 0.01 0.01 0.01 0.01 0.01 0.01 0.01 0.01 0.02 0.02 0.03 0.02 0.01 0.02 0.04 0.04 0.03 0.01 0.02 0.02
0.01 0.01 0.01 0.00 0.00 0.00 0.00 0.00 0.00 0.00 0.00 0.00 0.00 0.01 0.01 0.01 0.00 0.00 0.00 0.00 0.00 0.00 0.01 0.01 0.01 0.01 0.01 0.01 0.01 0.02 0.02 0.02 0.03 0.03 0.02 0.01 0.02 0.03 0.04 0.04 0.03 0.02 0.03
0.00 0.00 0.00 0.00 0.00 0.00 0.00 0.00 0.00 0.00 0.00 0.00 0.00 0.00 0.00 0.00 0.00 0.00 0.00 0.00 0.00 0.00 0.01 0.01 0.01 0.01 0.01 0.02 0.01 0.01 0.01 0.01 0.02 0.03 0.02 0.02 0.03 0.03 0.03 0.02 0.03 0.03 0.03
0.00 0.00 0.00 0.00 0.00 0.00 0.00 0.00 0.00 0.00 0.00 0.00 0.00 0.00 0.00 0.00 0.00 0.00 0.00 0.00 0.00 0.00 0.01 0.01 0.01 0.01 0.01 0.01 0.01 0.01 0.01 0.01 0.01 0.01 0.01 0.01 0.02 0.02 0.02 0.02 0.03 0.03 0.03
0.00 0.00 0.00 0.00 0.00 0.00 0.00 0.00 0.00 0.00 0.00 0.00 0.00 0.00 0.00 0.00 0.00 0.00 0.00 0.00 0.00 0.00 0.01 0.01 0.01 0.01 0.01 0.01 0.01 0.01 0.01 0.01 0.01 0.01 0.01 0.01 0.01 0.02 0.02 0.02 0.02 0.02 0.03
0.00 0.00 0.00 0.00 0.00 0.00 0.00 0.00 0.00 0.00 0.00 0.00 0.00 0.00 0.00 0.00 0.00 0.00 0.00 0.00 0.00 0.00 0.00 0.01 0.01 0.00 0.00 0.00 0.01 0.01 0.01 0.01 0.01 0.01 0.01 0.01 0.01 0.02 0.02 0.01 0.01 0.01 0.02
0.00 0.00 0.00 0.00 0.00 0.00 0.00 0.00 0.00 0.00 0.00 0.00 0.00 0.00 0.00 0.00 0.00 0.00 0.00 0.00 0.00 0.00 0.00 0.00 0.00 0.00 0.00 0.00 0.00 0.01 0.01 0.01 0.01 0.01 0.01 0.01 0.01 0.01 0.01 0.01 0.01 0.01 0.01
0.00 0.00 0.00 0.00 0.00 0.00 0.00 0.00 0.00 0.00 0.00 0.00 0.00 0.00 0.00 0.00 0.00 0.00 0.00 0.00 0.00 0.00 0.00 0.00 0.00 0.00 0.00 0.00 0.00 0.01 0.01 0.01 0.01 0.01 0.01 0.01 0.01 0.01 0.01 0.01 0.01 0.01 0.01
0.00 0.00 0.00 0.00 0.00 0.00 0.00 0.00 0.00 0.00 0.00 0.00 0.00 0.00 0.00 0.00 0.00 0.00 0.00 0.00 0.00 0.00 0.00 0.00 0.00 0.00 0.00 0.00 0.01 0.01 0.01 0.01 0.01 0.01 0.01 0.02 0.01 0.01 0.01 0.01 0.01 0.01 0.01
0.00 0.00 0.00 0.00 0.00 0.00 0.00 0.00 0.00 0.00 0.00 0.00 0.00 0.00 0.00 0.00 0.00 0.00 0.00 0.00 0.00 0.00 0.00 0.00 0.00 0.00 0.00 0.00 0.01 0.01 0.01 0.01 0.01 0.01 0.02 0.02 0.02 0.01 0.01 0.01 0.01 0.02 0.02
0.00 0.01 0.01 0.00 0.00 0.00 0.00 0.00 0.00 0.00 0.00 0.00 0.00 0.00 0.00 0.00 0.00 0.00 0.00 0.00 0.00 0.00 0.00 0.00 0.01 0.00 0.00 0.01 0.01 0.01 0.01 0.01 0.01 0.02 0.02 0.02 0.02 0.02 0.02 0.02 0.02 0.02 0.02
0.00 0.00 0.00 0.01 0.01 0.00 0.00 0.00 0.00 0.00 0.00 0.00 0.00 0.00 0.00 0.00 0.00 0.00 0.00 0.00 0.01 0.01 0.00 0.00 0.01 0.01 0.00 0.01 0.02 0.01 0.01 0.01 0.01 0.02 0.03 0.03 0.02 0.02 0.01 0.01 0.01 0.01 0.01
0.00 0.00 0.00 0.00 0.01 0.01 0.01 0.00 0.00 0.00 0.00 0.00 0.00 0.00 0.00 0.00 0.00 0.00 0.00 0.01 0.01 0.01 0.00 0.00 0.01 0.01 0.01 0.02 0.02 0.02 0.01 0.01 0.01 0.02 0.03 0.04 0.03 0.03 0.02 0.01 0.01 0.01 0.01
0.00 0.00 0.00 0.00 0.00 0.00 0.01 0.00 0.00 0.00 0.00 0.00 0.00 0.00 0.00 0.00 0.00 0.00 0.00 0.01 0.01 0.01 0.01 0.01 0.01 0.02 0.02 0.02 0.02 0.02 0.02 0.02 0.02 0.03 0.04 0.04 0.03 0.04 0.03 0.01 0.01 0.01 0.01
0.00 0.00 0.00 0.00 0.00 0.00 0.00 0.00 0.00 0.00 0.01 0.01 0.01 0.00 0.00 0.00 0.00 0.00 0.00 0.01 0.01 0.01 0.02 0.02 0.03 0.03 0.03 0.02 0.02 0.02 0.02 0.02 0.03 0.03 0.04 0.04 0.04 0.04 0.03 0.02 0.01 0.02 0.01
0.00 0.00 0.00 0.00 0.01 0.01 0.01 0.01 0.01 0.01 0.02 0.01 0.01 0.01 0.01 0.00 0.00 0.00 0.00 0.01 0.01 0.01 0.01 0.01 0.01 0.02 0.02 0.02 0.03 0.03 0.02 0.02 0.02 0.02 0.03 0.04 0.04 0.03 0.03 0.03 0.02 0.02 0.01
0.00 0.00 0.00 0.00 0.01 0.01 0.01 0.01 0.02 0.02 0.02 0.02 0.02 0.02 0.02 0.01 0.01 0.01 0.01 0.01 0.01 0.01 0.00 0.00 0.00 0.01 0.02 0.03 0.03 0.03 0.03 0.03 0.02 0.02 0.02 0.02 0.03 0.02 0.02 0.02 0.02 0.02 0.01
0.00 0.00 0.00 0.00 0.01 0.01 0.01 0.02 0.02 0.02 0.02 0.02 0.03 0.02 0.02 0.01 0.01 0.01 0.00 0.01 0.01 0.01 0.00 0.00 0.00 0.01 0.01 0.02 0.03 0.04 0.03 0.03 0.02 0.02 0.02 0.02 0.02 0.02 0.02 0.03 0.02 0.02 0.01
0.00 0.00 0.00 0.00 0.01 0.01 0.01 0.01 0.01 0.01 0.01 0.02 0.01 0.01 0.01 0.00 0.00 0.00 0.00 0.00 0.01 0.01 0.01 0.00 0.00 0.00 0.01 0.01 0.02 0.02 0.02 0.02 0.02 0.01 0.01 0.01 0.01 0.02 0.02 0.03 0.02 0.02 0.02
0.00 0.00 0.00 0.00 0.01 0.01 0.02 0.02 0.01 0.01 0.01 0.01 0.01 0.01 0.01 0.01 0.01 0.01 0.01 0.01 0.01 0.01 0.01 0.01 0.01 0.01 0.01 0.02 0.02 0.02 0.02 0.02 0.02 0.01 0.01 0.02 0.02 0.03 0.03 0.03 0.03 0.02 0.02
0.00 0.00 0.00 0.00 0.01 0.01 0.02 0.02 0.02 0.02 0.01 0.01 0.01 0.01 0.01 0.01 0.01 0.01 0.01 0.01 0.01 0.01 0.01 0.01 0.01 0.01 0.01 0.02 0.02 0.02 0.03 0.03 0.03 0.02 0.02 0.03 0.03 0.03 0.03 0.04 0.03 0.03 0.03
MSLP
1008.68 1009.37 1010.08 1010.79 1011.48 1012.16 1012.84 1013.53 1014.24 1014.98 1015.72 1016.46 1017.17 1017.84 1018.45 1018.98 1019.44 1019.84 1020.18 1020.48 1020.76 1021.03 1021.30 1021.57 1021.82 1022.07 1022.28 1022.46 1022.60 1022.68 1022.71 1022.68 1022.60 1022.48 1022.31 1022.10 1021.84 1021.53 1021.18 1020.79 1020.35 1019.88 1019.39
1008.14 1008.87 1009.60 1010.32 1011.00 1011.67 1012.34 1013.03 1013.76 1014.52 1015.32 1016.12 1016.90 1017.64 1018.30 1018.88 1019.37 1019.79 1020.16 1020.49 1020.80 1021.10 1021.41 1021.72 1022.01 1022.29 1022.53 1022.73 1022.88 1023.00 1023.06 1023.08 1023.06 1022.99 1022.86 1022.67 1022.40 1022.04 1021.60 1021.08 1020.50 1019.88 1019.24
1007.32 1008.07 1008.83 1009.57 1010.27 1010.95 1011.63 1012.35 1013.11 1013.93 1014.78 1015.65 1016.50 1017.30 1018.02 1018.64 1019.17 1019.62 1020.01 1020.37 1020.73 1021.08 1021.43 1021.78 1022.11 1022.42 1022.69 1022.91 1023.09 1023.23 1023.34 1023.42 1023.46 1023.46 1023.40 1023.25 1022.99 1022.61 1022.11 1021.48 1020.77 1020.00 1019.22
1006.26 1007.02 1007.80 1008.57 1009.30 1010.02 1010.74 1011.50 1012.32 1013.20 1014.13 1015.06 1015.97 1016.82 1017.59 1018.24 1018.80 1019.28 1019.71 1020.11 1020.51 1020.92 1021.32 1021.72 1022.10 1022.44 1022.73 1022.98 1023.18 1023.36 1023.51 1023.66 1023.78 1023.87 1023.89 1023.81 1023.59 1023.22 1022.69 1022.00 1021.19 1020.30 1019.38
1005.05 1005.82 1006.62 1007.41 1008.17 1008.94 1009.71 1010.54 1011.42 1012.37 1013.36 1014.36 1015.32 1016.22 1017.01 1017.70 1018.28 1018.79 1019.25 1019.70 1020.15 1020.61 1021.08 1021.54 1021.96 1022.34 1022.67 1022.94 1023.17 1023.38 1023.58 1023.79 1023.99 1024.16 1024.28 1024.28 1024.14 1023.81 1023.29 1022.58 1021.71 1020.74 1019.73
1003.84 1004.59 1005.39 1006.20 1007.00 1007.80 1008.63 1009.52 1010.46 1011.47 1012.52 1013.57 1014.57 1015.50 1016.31 1017.02 1017.63 1018.16 1018.67 1019.16 1019.67 1020.19 1020.73 1021.24 1021.72 1022.15 1022.50 1022.80 1023.05 1023.29 1023.53 1023.79 1024.06 1024.32 1024.52 1024.62 1024.56 1024.31 1023.83 1023.14 1022.26 1021.26 1020.18
1002.76 1003.48 1004.26 1005.07 1005.88 1006.71 1007.58 1008.50 1009.50 1010.55 1011.64 1012.72 1013.75 1014.69 1015.52 1016.25 1016.88 1017.45 1017.99 1018.53 1019.10 1019.69 1020.30 1020.88 1021.41 1021.87 1022.26 1022.58 1022.85 1023.10 1023.37 1023.66 1023.98 1024.29 1024.57 1024.75 1024.78 1024.61 1024.20 1023.56 1022.72 1021.73 1020.63
1001.91 1002.59 1003.33 1004.12 1004.92 1005.75 1006.63 1007.57 1008.58 1009.66 1010.76 1011.85 1012.89 1013.84 1014.69 1015.43 1016.08 1016.68 1017.27 1017.87 1018.51 1019.16 1019.83 1020.47 1021.05 1021.55 1021.96 1022.29 1022.57 1022.82 1023.09 1023.39 1023.72 1024.07 1024.40 1024.64 1024.74 1024.64 1024.32 1023.76 1022.99 1022.04 1020.97
1001.36 1001.98 1002.68 1003.42 1004.19 1004.99 1005.84 1006.77 1007.76 1008.82 1009.92 1011.00 1012.04 1012.99 1013.85 1014.61 1015.29 1015.93 1016.57 1017.23 1017.92 1018.63 1019.35 1020.04 1020.66 1021.19 1021.62 1021.95 1022.22 1022.46 1022.71 1022.99 1023.31 1023.66 1023.99 1024.26 1024.41 1024.38 1024.13 1023.66 1022.97 1022.10 1021.09
1001.08 1001.66 1002.31 1002.99 1003.70 1004.44 1005.24 1006.12 1007.07 1008.09 1009.15 1010.21 1011.23 1012.18 1013.05 1013.83 1014.55 1015.23 1015.92 1016.62 1017.36 1018.13 1018.89 1019.61 1020.25 1020.79 1021.22 1021.55 1021.80 1022.01 1022.22 1022.47 1022.75 1023.07 1023.38 1023.65 1023.81 1023.82 1023.64 1023.24 1022.65 1021.87 1020.94
1001.05 1001.59 1002.18 1002.79 1003.43 1004.10 1004.82 1005.63 1006.52 1007.48 1008.49 1009.51 1010.51 1011.46 1012.33 1013.13 1013.89 1014.61 1015.33 1016.08 1016.86 1017.65 1018.42 1019.16 1019.80 1020.34 1020.76 1021.08 1021.31 1021.49 1021.67 1021.87 1022.10 1022.36 1022.63 1022.86 1023.01 1023.03 1022.88 1022.55 1022.03 1021.35 1020.52
1001.16 1001.68 1002.21 1002.76 1003.32 1003.91 1004.55 1005.27 1006.09 1006.99 1007.94 1008.93 1009.90 1010.84 1011.72 1012.54 1013.32 1014.07 1014.83 1015.60 1016.39 1017.18 1017.96 1018.68 1019.32 1019.84 1020.25 1020.55 1020.76 1020.93 1021.07 1021.23 1021.41 1021.62 1021.83 1022.00 1022.11 1022.12 1021.98 1021.68 1021.23 1020.63 1019.89
1001.32 1001.81 1002.31 1002.80 1003.29 1003.81 1004.38 1005.03 1005.77 1006.61 1007.51 1008.46 1009.41 1010.33 1011.22 1012.05 1012.85 1013.63 1014.39 1015.17 1015.96 1016.74 1017.49 1018.18 1018.79 1019.30 1019.69 1019.98 1020.19 1020.34 1020.47 1020.60 1020.74 1020.90 1021.05 1021.17 1021.22 1021.19 1021.03 1020.75 1020.34 1019.80 1019.14
1001.45 1001.93 1002.39 1002.83 1003.27 1003.73 1004.24 1004.84 1005.53 1006.32 1007.18 1008.10 1009.03 1009.94 1010.82 1011.67 1012.47 1013.26 1014.02 1014.79 1015.55 1016.30 1017.01 1017.67 1018.25 1018.73 1019.11 1019.39 1019.60 1019.77 1019.90 1020.02 1020.14 1020.26 1020.36 1020.42 1020.42 1020.33 1020.14 1019.84 1019.44 1018.94 1018.35
1001.52 1001.96 1002.39 1002.80 1003.20 1003.63 1004.12 1004.68 1005.35 1006.11 1006.94 1007.83 1008.74 1009.65 1010.53 1011.37 1012.18 1012.96 1013.71 1014.45 1015.18 1015.89 1016.56 1017.17 1017.71 1018.17 1018.54 1018.84 1019.06 1019.25 1019.40 1019.53 1019.65 1019.74 1019.81 1019.81 1019.75 1019.60 1019.36 1019.02 1018.61 1018.11 1017.55
1001.51 1001.92 1002.31 1002.69 1003.08 1003.50 1003.98 1004.54 1005.20 1005.95 1006.77 1007.65 1008.55 1009.45 1010.32 1011.16 1011.96 1012.72 1013.46 1014.18 1014.87 1015.54 1016.16 1016.74 1017.25 1017.68 1018.05 1018.35 1018.60 1018.81 1018.99 1019.14 1019.26 1019.34 1019.37 1019.33 1019.21 1019.00 1018.69 1018.31 1017.85 1017.34 1016.79
1001.48 1001.83 1002.18 1002.54 1002.93 1003.35 1003.85 1004.42 1005.09 1005.85 1006.67 1007.54 1008.43 1009.32 1010.18 1011.01 1011.80 1012.56 1013.28 1013.98 1014.64 1015.28 1015.87 1016.41 1016.89 1017.31 1017.68 1017.99 1018.25 1018.48 1018.67 1018.84 1018.96 1019.03 1019.03 1018.95 1018.77 1018.49 1018.12 1017.67 1017.17 1016.62 1016.05
1001.49 1001.77 1002.08 1002.41 1002.80 1003.24 1003.75 1004.36 1005.05 1005.81 1006.64 1007.51 1008.39 1009.27 1010.12 1010.94 1011.73 1012.47 1013.19 1013.87 1014.52 1015.14 1015.71 1016.23 1016.69 1017.10 1017.45 1017.75 1018.02 1018.25 1018.44 1018.60 1018.71 1018.76 1018.73 1018.60 1018.37 1018.03 1017.60 1017.09 1016.53 1015.94 1015.33
1001.62 1001.82 1002.07 1002.39 1002.77 1003.23 1003.77 1004.40 1005.11 1005.88 1006.71 1007.57 1008.44 1009.30 1010.14 1010.96 1011.73 1012.48 1013.20 1013.88 1014.53 1015.14 1015.70 1016.21 1016.66 1017.04 1017.37 1017.66 1017.90 1018.10 1018.27 1018.40 1018.48 1018.49 1018.41 1018.24 1017.96 1017.58 1017.09 1016.53 1015.92 1015.28 1014.64
1001.93 1002.05 1002.26 1002.56 1002.93 1003.40 1003.96 1004.60 1005.32 1006.10 1006.91 1007.76 1008.61 1009.45 1010.27 1011.07 1011.85 1012.60 1013.32 1014.02 1014.68 1015.29 1015.85 1016.35 1016.77 1017.13 1017.43 1017.67 1017.87 1018.02 1018.13 1018.21 1018.23 1018.19 1018.06 1017.85 1017.53 1017.10 1016.59 1015.99 1015.34 1014.67 1013.99
1002.46 1002.52 1002.69 1002.97 1003.34 1003.81 1004.37 1005.01 1005.72 1006.49 1007.28 1008.10 1008.91 1009.73 1010.53 1011.31 1012.08 1012.84 1013.57 1014.28 1014.95 1015.57 1016.12 1016.61 1017.01 1017.33 1017.58 1017.76 1017.88 1017.96 1018.00 1018.00 1017.95 1017.85 1017.68 1017.42 1017.07 1016.63 1016.10 1015.49 1014.83 1014.14 1013.44
1003.21 1003.24 1003.39 1003.65 1004.02 1004.48 1005.04 1005.66 1006.35 1007.08 1007.84 1008.62 1009.39 1010.17 1010.94 1011.70 1012.46 1013.21 1013.95 1014.65 1015.32 1015.94 1016.48 1016.94 1017.31 1017.58 1017.76 1017.87 1017.91 1017.90 1017.86 1017.77 1017.65 1017.49 1017.27 1016.99 1016.63 1016.19 1015.66 1015.06 1014.41 1013.73 1013.03
1004.16 1004.20 1004.35 1004.61 1004.96 1005.42 1005.95 1006.55 1007.20 1007.89 1008.60 1009.32 1010.06 1010.79 1011.52 1012.26 1012.99 1013.72 1014.44 1015.13 1015.78 1016.37 1016.89 1017.30 1017.61 1017.82 1017.93 1017.96 1017.92 1017.82 1017.69 1017.53 1017.35 1017.13 1016.89 1016.59 1016.24 1015.82 1015.32 1014.75 1014.13 1013.48 1012.80
1005.28 1005.35 1005.51 1005.78 1006.13 1006.56 1007.07 1007.63 1008.23 1008.87 1009.54 1010.21 1010.89 1011.58 1012.27 1012.97 1013.67 1014.36 1015.04 1015.69 1016.30 1016.84 1017.29 1017.64 1017.89 1018.02 1018.05 1018.00 1017.88 1017.71 1017.50 1017.29 1017.06 1016.82 1016.56 1016.27 1015.94 1015.55 1015.10 1014.59 1014.01 1013.39 1012.75
1006.53 1006.64 1006.83 1007.11 1007.45 1007.86 1008.32 1008.84 1009.40 1009.99 1010.61 1011.23 1011.87 1012.52 1013.17 1013.82 1014.47 1015.11 1015.73 1016.31 1016.84 1017.30 1017.67 1017.94 1018.10 1018.15 1018.10 1017.98 1017.79 1017.56 1017.31 1017.06 1016.80 1016.56 1016.31 1016.04 1015.74 1015.41 1015.01 1014.55 1014.03 1013.46 1012.85
1007.86 1008.03 1008.25 1008.52 1008.84 1009.22 1009.65 1010.12 1010.63 1011.18 1011.75 1012.34 1012.95 1013.55 1014.16 1014.77 1015.36 1015.92 1016.46 1016.95 1017.38 1017.73 1018.00 1018.17 1018.23 1018.20 1018.08 1017.90 1017.67 1017.40 1017.13 1016.87 1016.61 1016.38 1016.15 1015.91 1015.65 1015.36 1015.02 1014.61 1014.15 1013.62 1013.06
Thickness
5620 5622 5625 5627 5629 5630 5632 5633 5633 5633 5633 5632 5631 5630 5630 5631 5631 5631 5631 5631 5630 5629 5628 5626 5624 5622 5620 5618 5616 5613 5611 5608 5608 5606 5606 5606 5606 5604 5602 5600 5598 5597 5595
5611 5614 5617 5619 5622 5624 5625 5626 5627 5627 5628 5628 5627 5625 5625 5624 5624 5624 5624 5624 5623 5622 5620 5619 5617 5615 5613 5610 5608 5606 5602 5600 5599 5596 5595 5594 5595 5595 5595 5591 5589 5588 5586
5603 5607 5609 5612 5613 5616 5618 5621 5621 5622 5621 5621 5620 5618 5617 5616 5616 5617 5617 5617 5616 5615 5613 5612 5610 5608 5606 5603 5601 5599 5596 5593 5590 5588 5585 5583 5583 5584 5585 5583 5581 5579 5577
5595 5599 5602 5605 5607 5609 5611 5613 5614 5615 5614 5614 5614 5613 5612 5611 5611 5610 5610 5609 5609 5608 5606 5605 5603 5601 5599 5596 5594 5592 5589 5586 5583 5580 5577 5575 5574 5571 5574 5574 5572 5571 5569
5587 5591 5595 5598 5600 5602 5603 5605 5606 5607 5607 5608 5608 5608 5607 5606 5604 5604 5603 5602 5602 5601 5599 5598 5596 5594 5592 5589 5587 5585 5582 5579 5576 5573 5570 5568 5565 5563 5561 5564 5565 5564 5562
5578 5582 5585 5588 5591 5593 5594 5596 5598 5599 5600 5600 5601 5601 5600 5598 5597 5597 5596 5595 5594 5593 5592 5590 5588 5586 5585 5582 5580 5578 5576 5573 5570 5567 5564 5562 5559 5556 5554 5553 5554 5554 5554
5569 5572 5576 5579 5582 5584 5586 5588 5590 5591 5592 5593 5593 5593 5593 5592 5591 5591 5589 5588 5587 5585 5584 5583 5581 5579 5577 5575 5573 5571 5569 5566 5564 5561 5559 5556 5554 5551 5547 5545 5544 5543 5544
5561 5564 5567 5570 5573 5576 5578 5580 5581 5582 5584 5585 5585 5585 5585 5584 5584 5583 5583 5582 5581 5579 5578 5575 5573 5572 5570 5568 5566 5564 5562 5560 5558 5556 5553 5550 5547 5544 5541 5537 5535 5535 5534
5552 5555 5558 5561 5564 5567 5569 5571 5573 5574 5575 5577 5577 5577 5577 5577 5576 5576 5575 5574 5573 5572 5570 5568 5566 5564 5563 5561 5559 5557 5555 5553 5551 5549 5546 5543 5541 5537 5534 5531 5528 5524 5524
5541 5544 5548 5551 5554 5557 5559 5561 5563 5565 5567 5568 5570 5570 5569 5569 5568 5568 5567 5566 5565 5564 5562 5561 5559 5557 5555 5554 5552 5550 5548 5546 5544 5542 5539 5537 5534 5531 5528 5525 5521 5518 5515
5530 5533 5536 5540 5543 5546 5548 5551 5553 5556 5557 5559 5561 5561 5560 5560 5560 5559 5558 5558 5557 5556 5555 5553 5552 5550 5548 5546 5544 5542 5541 5539 5537 5535 5533 5530 5528 5525 5522 5519 5515 5511 5507
5519 5522 5525 5528 5531 5535 5538 5541 5543 5546 5548 5549 5551 5552 5551 5551 5551 5551 5550 5549 5549 5548 5547 5546 5544 5543 5541 5539 5537 5535 5534 5531 5530 5528 5525 5523 5521 5518 5515 5512 5509 5505 5501
5509 5512 5515 5518 5521 5524 5527 5531 5533 5536 5538 5539 5541 5542 5542 5542 5542 5542 5542 5541 5540 5540 5539 5538 5537 5535 5533 5531 5530 5528 5526 5524 5523 5521 5519 5516 5514 5512 5509 5506 5503 5499 5496
5500 5503 5505 5507 5510 5513 5517 5520 5523 5526 5528 5530 5531 5532 5533 5533 5534 5534 5533 5533 5532 5531 5531 5530 5528 5527 5525 5524 5522 5521 5519 5517 5516 5514 5512 5510 5508 5506 5504 5501 5497 5494 5490
5491 5494 5496 5497 5501 5504 5507 5511 5514 5517 5519 5521 5522 5523 5524 5524 5525 5525 5525 5524 5524 5523 5522 5521 5520 5519 5518 5517 5515 5514 5513 5511 5509 5507 5505 5504 5502 5501 5498 5496 5492 5488 5484
5482 5485 5487 5489 5491 5495 5498 5501 5505 5508 5510 5512 5513 5514 5515 5515 5516 5516 5516 5516 5515 5515 5514 5513 5512 5511 5511 5510 5510 5508 5506 5504 5502 5501 5499 5498 5496 5494 5493 5490 5487 5483 5479
5473 5476 5478 5480 5483 5486 5489 5492 5495 5498 5501 5503 5504 5505 5506 5507 5507 5508 5507 5507 5507 5506 5506 5505 5505 5504 5503 5504 5503 5501 5499 5497 5495 5494 5492 5491 5489 5488 5486 5483 5480 5476 5473
5462 5465 5468 5471 5474 5477 5480 5483 5486 5488 5491 5493 5494 5496 5497 5498 5498 5498 5498 5498 5498 5498 5497 5497 5497 5497 5497 5497 5496 5494 5491 5489 5488 5487 5486 5484 5483 5481 5479 5476 5473 5469 5466
5455 5457 5459 5461 5464 5467 5471 5474 5476 5478 5481 5483 5485 5487 5488 5489 5490 5490 5490 5490 5490 5490 5490 5490 5489 5489 5489 5490 5489 5487 5484 5483 5481 5480 5479 5478 5476 5476 5474 5470 5466 5463 5459
5447 5449 5450 5452 5455 5458 5461 5464 5467 5469 5472 5474 5476 5478 5480 5481 5482 5482 5482 5482 5482 5483 5483 5483 5482 5481 5481 5482 5482 5481 5478 5476 5474 5473 5472 5471 5470 5469 5467 5464 5461 5458 5454
5438 5441 5442 5444 5446 5448 5452 5455 5457 5460 5463 5465 5467 5469 5471 5473 5474 5474 5474 5474 5475 5475 5475 5475 5474 5474 5474 5475 5475 5474 5472 5470 5467 5466 5465 5464 5464 5463 5461 5459 5456 5453 5450
5429 5432 5434 5435 5437 5439 5442 5445 5448 5451 5454 5456 5458 5460 5462 5464 5466 5466 5466 5467 5467 5467 5466 5466 5466 5466 5467 5468 5469 5468 5467 5465 5462 5460 5459 5458 5458 5457 5455 5452 5450 5447 5444
5419 5422 5424 5426 5428 5430 5433 5436 5438 5441 5444 5447 5449 5451 5453 5455 5456 5457 5458 5458 5459 5459 5459 5458 5459 5459 5460 5461 5462 5461 5460 5459 5456 5454 5453 5452 5451 5449 5447 5445 5443 5440 5437
5409 5412 5415 5417 5419 5421 5424 5426 5429 5432 5435 5437 5439 5441 5443 5445 5446 5448 5449 5450 5450 5450 5451 5451 5451 5452 5453 5454 5454 5453 5452 5451 5449 5447 5445 5444 5443 5441 5439 5436 5434 5432 5431
5399 5402 5405 5408 5410 5412 5415 5417 5420 5422 5425 5427 5430 5432 5434 5435 5437 5438 5440 5441 5443 5444 5445 5445 5446 5446 5446 5448 5448 5447 5446 5444 5442 5440 5437 5435 5433 5432 5430 5428 5426 5425 5424
5389 5392 5395 5398 5401 5403 5405 5408 5410 5413 5416 5418 5420 5422 5424 5426 5428 5429 5431 5433 5435 5437 5438 5440 5440 5440 5441 5441 5441 5440 5439 5437 5435 5433 5429 5427 5425 5424 5423 5421 5419 5418 5417